Location: Wells
(51.2093°N, 2.6446°W)
Time: 06:20:10
(UTC+01:00)

PCSat - Pass Details

Date: 10 March 2026
Orbit: 780 x 790 km, 67.1° (Epoch: 13 April)

Event Time Altitude Azimuth Distance (km) Brightness Sun altitude
Exits shadow 03:10:09 18° 335° (NNW) 1,883 11.6 -31.2°
Maximum altitude 03:10:41 18° 343° (NNW) 1,871 11.7 -31.2°
Drops below altitude 10° 03:14:20 10° 25° (NNE) 2,365 12.7 -30.7°
Sets 03:17:34 0° 45° (NE) 3,296 13.9 -30.3°
